Showing default

WGS 6 (USA 244), 39222

Orbit data source: Space-Track

WGS 6 (USA 244), 39222 is a payload satellite owned by USAF SMC (US) in GEO that was launched on Thu, 08 Aug 2013 UTC via a DELTA 4M+(5,4) launch vehicle from the Air Force Eastern Test Range (AFETR). Payload-class satellites include a variety of spacecraft equipped with specific instruments for various scientific and technological missions. These include communications satellites like Starlink; space stations such as the ISS; scientific satellites like the Hubble; Earth observation satellites from companies like Planet Labs, Umbra, and HawkEye 360; GPS; miniature CubeSats for education and research; and military/defense satellites.

Loading next visibility...
Identifier
39222, 2013-041A
Orbit
GEO
Country
Flag of USUS
Related business
Manufacturer
Boeing/ES
Mission
Operational Defense Communications
Bus & Motor
BSS-702HP, R-4D-15-375
Mass
5,768 kg wet, ~2,500 kg dry
Launch date (UTC)
2013-08-08 (13 years ago)
Launch vehicle
DELTA 4M+(5,4)
Launch site
Air Force Eastern Test Range (AFETR)
Object type
Payload
Rocket body
Debris
Shape & HBR
Box + 2 Pan, 20.4 m
Radar Cross Section
52.962 m², Large (>1 m²)

Expand to show TLE details & history
Last TLE update: 14 hours ago

TLE from 14 hours ago
0 WGS 6 (USA 244)
1 39222U 13041A   26062.63101429  .00000075  00000-0  00000-0 0  9991
2 39222   0.0164 133.9638 0001410 186.6948 292.6817  1.00270003 45009
Epoch: 2026-03-03T15:08Z
TLE epoch observation values (Epoch: 2026-03-03T15:08:39.634Z)
Latitude
0.03887°
Longitude
-135.21245°
Altitude
35,784.293 km
Speed
3.075 km/s
True Right ascension
16h 53m 26s
True Declination
0° 02' 20"
Sunlit
Object was in daylight at epoch
Visualization orbit readout
Latitude
Unknown
Longitude
Unknown
Altitude
Unknown
Speed
Unknown
Apparent Right ascension
Unknown
Apparent Declination
Unknown
Sunlit
N/A
Visualization observer readout
Local Sidereal Time
08:43:33
Azimuth
Unknown
Elevation
Unknown
Doppler factor
Unknown
Orbital elements
Apogee altitude
35,794.11 km
Perigee altitude
35,782.219 km
Semi-major axis
42,166.302 km
Eccentricity
0.00014
Inclination
0.0164°
RAAN
133.9638°
Arg. of periapsis
186.6948°
True anomaly
292.66679°
Mean anomaly
292.6817°
Eccentric anomaly
292.67425°
Mean motion
0.25067 °/min
Orbital period
1,436.18 mins
BSTAR
0
Loading maneuver chart data...
Computing Atmospheric mass density...
Loading historical data...
Loading historical data...
Loading historical data...
Loading historical data...
Loading historical data...
Loading historical data...
Loading historical data...
Other satellites on launch #41 in the year 2013 (2013-08-08 UTC)

Documentation

Showing up to 5 results
|